BRX2278 ESKS-ESSA

Flight info

Callsign BRX2278
Flight time 0h 47m
Altitude 23000
Route LOML1L LOMLA DCT ELTOK ELTO8M
Aircraft AT76/M-SDFGIRY/S

Departure

Time 2026-05-05 16:14
Airport Scandinavian Mountains Airport (ESKS)

Arrival

Time 2026-05-05 17:02
Airport Stockholm-Arlanda Airport (ESSA)
Time Latitude Longitude Altitude Speed Heading
2026-05-05 15:59 61.15563 12.84076 1633 ft 0 kts 283°
2026-05-05 16:11 61.15682 12.84042 1631 ft 16 kts 351°
2026-05-05 16:12 61.15762 12.84250 1628 ft 24 kts 63°
2026-05-05 16:12 61.15566 12.84547 1631 ft 16 kts 166°
2026-05-05 16:13 61.15601 12.84601 1631 ft 3 kts 327°
2026-05-05 16:13 61.15604 12.84597 1631 ft 0 kts 327°
2026-05-05 16:14 61.16004 12.84027 1633 ft 94 kts 327°
2026-05-05 16:14 61.17478 12.82052 2355 ft 141 kts 324°
2026-05-05 16:15 61.19334 12.79547 3315 ft 169 kts 323°
2026-05-05 16:15 61.19559 12.75260 4539 ft 179 kts 230°
2026-05-05 16:16 61.17172 12.73569 5785 ft 190 kts 177°
2026-05-05 16:16 61.15101 12.76872 7060 ft 193 kts 153°
2026-05-05 16:17 61.12447 12.76270 8236 ft 194 kts 205°
2026-05-05 16:17 61.11227 12.75177 8984 ft 190 kts 209°
2026-05-05 16:18 61.08821 12.72804 9890 ft 193 kts 208°
2026-05-05 16:18 61.07508 12.72166 10279 ft 198 kts 182°
2026-05-05 16:18 61.04793 12.73099 11011 ft 206 kts 154°
2026-05-05 16:19 61.03514 12.74475 11384 ft 208 kts 156°
2026-05-05 16:19 61.02206 12.75796 11796 ft 210 kts 158°
2026-05-05 16:19 60.99564 12.78449 12638 ft 212 kts 158°
2026-05-05 16:20 60.96918 12.81143 13471 ft 214 kts 157°
2026-05-05 16:20 60.94250 12.83860 14222 ft 215 kts 158°
2026-05-05 16:21 60.91552 12.86607 14953 ft 218 kts 158°
2026-05-05 16:22 60.87443 12.90779 16031 ft 221 kts 158°
2026-05-05 16:22 60.84680 12.93578 16735 ft 224 kts 158°
2026-05-05 16:23 60.81867 12.96421 17416 ft 227 kts 158°
2026-05-05 16:23 60.80447 12.97855 17758 ft 228 kts 158°
2026-05-05 16:23 60.77582 13.00747 18360 ft 231 kts 159°
2026-05-05 16:24 60.76137 13.02209 18625 ft 233 kts 160°
2026-05-05 16:24 60.74679 13.03676 18874 ft 234 kts 160°
2026-05-05 16:24 60.71731 13.06621 19377 ft 238 kts 161°
2026-05-05 16:25 60.70236 13.08113 19628 ft 239 kts 162°
2026-05-05 16:25 60.67172 13.11248 19866 ft 252 kts 165°
2026-05-05 16:25 60.65594 13.12820 20105 ft 253 kts 166°
2026-05-05 16:26 60.62426 13.15998 20562 ft 255 kts 167°
2026-05-05 16:26 60.59348 13.19791 20950 ft 278 kts 140°
2026-05-05 16:27 60.58224 13.23080 21141 ft 290 kts 125°
2026-05-05 16:27 60.57422 13.26898 21330 ft 297 kts 115°
2026-05-05 16:27 60.56987 13.29546 21447 ft 299 kts 112°
2026-05-05 16:27 60.56351 13.33600 21638 ft 301 kts 113°
2026-05-05 16:28 60.55461 13.38953 21865 ft 303 kts 116°
2026-05-05 16:28 60.54962 13.41658 21989 ft 303 kts 117°
2026-05-05 16:28 60.53947 13.46960 22234 ft 306 kts 117°
2026-05-05 16:28 60.53430 13.49691 22358 ft 307 kts 118°
2026-05-05 16:29 60.52655 13.53748 22511 ft 309 kts 118°
2026-05-05 16:29 60.51880 13.57832 22693 ft 310 kts 118°
2026-05-05 16:29 60.51105 13.61945 22785 ft 314 kts 118°
2026-05-05 16:29 60.50322 13.66058 22824 ft 315 kts 121°
2026-05-05 16:30 60.49520 13.70300 22842 ft 320 kts 119°
2026-05-05 16:30 60.48711 13.74467 22864 ft 325 kts 120°
2026-05-05 16:30 60.47897 13.78799 22866 ft 332 kts 119°
2026-05-05 16:30 60.47078 13.83226 22864 ft 338 kts 118°
2026-05-05 16:31 60.46246 13.87707 22864 ft 342 kts 119°
2026-05-05 16:31 60.45392 13.92222 22865 ft 345 kts 119°
2026-05-05 16:31 60.44520 13.96779 22862 ft 348 kts 119°
2026-05-05 16:31 60.43641 14.01365 22863 ft 350 kts 119°
2026-05-05 16:32 60.42756 14.05990 22862 ft 353 kts 119°
2026-05-05 16:32 60.41869 14.10633 22856 ft 354 kts 119°
2026-05-05 16:32 60.40978 14.15288 22868 ft 355 kts 119°
2026-05-05 16:32 60.40084 14.19945 22864 ft 356 kts 119°
2026-05-05 16:33 60.39182 14.24611 22863 ft 357 kts 119°
2026-05-05 16:33 60.38287 14.29296 22851 ft 356 kts 121°
2026-05-05 16:33 60.37391 14.33943 22853 ft 354 kts 122°
2026-05-05 16:33 60.36483 14.38568 22860 ft 353 kts 121°
2026-05-05 16:34 60.35549 14.43139 22860 ft 353 kts 123°
2026-05-05 16:34 60.34621 14.47755 22860 ft 356 kts 121°
2026-05-05 16:34 60.33709 14.52409 22861 ft 357 kts 121°
2026-05-05 16:34 60.32794 14.57074 22871 ft 358 kts 121°
2026-05-05 16:35 60.31871 14.61764 22863 ft 359 kts 121°
2026-05-05 16:35 60.30947 14.66456 22865 ft 360 kts 121°
2026-05-05 16:35 60.30030 14.71098 22864 ft 361 kts 121°
2026-05-05 16:35 60.29099 14.75801 22872 ft 362 kts 121°
2026-05-05 16:36 60.28164 14.80512 22861 ft 363 kts 121°
2026-05-05 16:36 60.27225 14.85227 22858 ft 363 kts 121°
2026-05-05 16:36 60.26286 14.89936 22843 ft 361 kts 123°
2026-05-05 16:36 60.25094 14.94192 22850 ft 342 kts 140°
2026-05-05 16:37 60.23722 14.98103 22861 ft 343 kts 139°
2026-05-05 16:37 60.22429 15.02191 22862 ft 350 kts 134°
2026-05-05 16:37 60.21232 15.06505 22869 ft 354 kts 131°
2026-05-05 16:37 60.20069 15.10872 22858 ft 355 kts 131°
2026-05-05 16:38 60.18899 15.15248 22864 ft 355 kts 131°
2026-05-05 16:38 60.17709 15.19583 22855 ft 354 kts 133°
2026-05-05 16:38 60.16490 15.23882 22750 ft 354 kts 133°
2026-05-05 16:38 60.15276 15.28171 22825 ft 352 kts 133°
2026-05-05 16:39 60.14070 15.32445 22836 ft 352 kts 133°
2026-05-05 16:39 60.12861 15.36708 22844 ft 351 kts 133°
2026-05-05 16:39 60.11648 15.40979 22852 ft 351 kts 133°
2026-05-05 16:39 60.10436 15.45224 22853 ft 352 kts 133°
2026-05-05 16:40 60.09236 15.49437 22819 ft 351 kts 133°
2026-05-05 16:40 60.08034 15.53657 22842 ft 349 kts 133°
2026-05-05 16:40 60.06827 15.57878 22853 ft 348 kts 133°
2026-05-05 16:40 60.05620 15.62087 22860 ft 348 kts 133°
2026-05-05 16:41 60.04409 15.66294 22850 ft 349 kts 133°
2026-05-05 16:41 60.03197 15.70507 22857 ft 350 kts 133°
2026-05-05 16:41 60.01968 15.74757 22861 ft 356 kts 133°
2026-05-05 16:41 60.00719 15.79073 22861 ft 361 kts 133°
2026-05-05 16:42 59.99459 15.83442 22861 ft 365 kts 133°
2026-05-05 16:42 59.98188 15.87857 22855 ft 368 kts 133°
2026-05-05 16:42 59.96901 15.92298 22846 ft 370 kts 133°
2026-05-05 16:42 59.95606 15.96753 22844 ft 372 kts 133°
2026-05-05 16:43 59.94303 16.01223 22849 ft 373 kts 133°
2026-05-05 16:43 59.92996 16.05695 22804 ft 374 kts 132°
2026-05-05 16:43 59.91687 16.10168 22828 ft 373 kts 132°
2026-05-05 16:43 59.90385 16.14632 22838 ft 373 kts 132°
2026-05-05 16:44 59.89074 16.19093 22835 ft 373 kts 132°
2026-05-05 16:44 59.87763 16.23549 22831 ft 373 kts 132°
2026-05-05 16:44 59.86441 16.28002 22590 ft 379 kts 132°
2026-05-05 16:44 59.85085 16.32502 22053 ft 376 kts 133°
2026-05-05 16:45 59.83742 16.36939 21540 ft 372 kts 132°
2026-05-05 16:45 59.82436 16.41335 21061 ft 367 kts 132°
2026-05-05 16:45 59.81163 16.45613 20610 ft 362 kts 131°
2026-05-05 16:45 59.79874 16.49949 20171 ft 357 kts 131°
2026-05-05 16:46 59.78634 16.54110 19760 ft 353 kts 131°
2026-05-05 16:46 59.77386 16.58275 19373 ft 348 kts 131°
2026-05-05 16:46 59.76138 16.62434 18974 ft 344 kts 132°
2026-05-05 16:46 59.74945 16.66448 18629 ft 341 kts 132°
2026-05-05 16:47 59.73753 16.70480 18296 ft 337 kts 132°
2026-05-05 16:47 59.72568 16.74464 17937 ft 334 kts 132°
2026-05-05 16:47 59.71395 16.78411 17571 ft 329 kts 131°
2026-05-05 16:47 59.70236 16.82266 17213 ft 324 kts 131°
2026-05-05 16:48 59.69058 16.86116 16563 ft 326 kts 130°
2026-05-05 16:48 59.67865 16.89918 15914 ft 326 kts 129°
2026-05-05 16:48 59.66703 16.93758 15292 ft 325 kts 126°
2026-05-05 16:48 59.65557 16.97612 14677 ft 323 kts 125°
2026-05-05 16:49 59.64413 17.01405 14046 ft 321 kts 125°
2026-05-05 16:49 59.63282 17.05200 13427 ft 320 kts 125°
2026-05-05 16:49 59.62139 17.08977 12760 ft 319 kts 123°
2026-05-05 16:49 59.61039 17.12772 12107 ft 317 kts 123°
2026-05-05 16:50 59.59951 17.16513 11569 ft 309 kts 122°
2026-05-05 16:50 59.58908 17.20131 11174 ft 297 kts 122°
2026-05-05 16:50 59.57910 17.23630 10809 ft 288 kts 122°
2026-05-05 16:50 59.56937 17.27021 10455 ft 280 kts 122°
2026-05-05 16:51 59.55980 17.30322 10087 ft 274 kts 122°
2026-05-05 16:51 59.55048 17.33497 9739 ft 268 kts 122°
2026-05-05 16:51 59.54103 17.36679 9357 ft 263 kts 122°
2026-05-05 16:51 59.53192 17.39727 8966 ft 259 kts 122°
2026-05-05 16:52 59.52283 17.42766 8584 ft 256 kts 122°
2026-05-05 16:52 59.51376 17.45779 8209 ft 254 kts 122°
2026-05-05 16:52 59.50476 17.48753 7832 ft 252 kts 122°
2026-05-05 16:52 59.49572 17.51695 7461 ft 250 kts 123°
2026-05-05 16:53 59.48662 17.54597 7102 ft 249 kts 123°
2026-05-05 16:53 59.47747 17.57485 6734 ft 248 kts 123°
2026-05-05 16:53 59.46830 17.60354 6382 ft 247 kts 123°
2026-05-05 16:53 59.45913 17.63203 6004 ft 247 kts 123°
2026-05-05 16:54 59.44993 17.66040 5625 ft 246 kts 123°
2026-05-05 16:54 59.44074 17.68869 5259 ft 245 kts 123°
2026-05-05 16:54 59.43156 17.71688 4889 ft 244 kts 123°
2026-05-05 16:54 59.42243 17.74493 4525 ft 239 kts 123°
2026-05-05 16:55 59.41388 17.77110 4227 ft 216 kts 123°
2026-05-05 16:55 59.40649 17.79492 4089 ft 199 kts 115°
2026-05-05 16:55 59.40331 17.82138 4068 ft 200 kts 99°
2026-05-05 16:55 59.40274 17.84803 4047 ft 199 kts 72°
2026-05-05 16:56 59.41014 17.87028 4038 ft 191 kts 31°
2026-05-05 16:56 59.42231 17.87856 4037 ft 190 kts
2026-05-05 16:56 59.43611 17.88332 3989 ft 213 kts
2026-05-05 16:56 59.45066 17.88775 3737 ft 215 kts
2026-05-05 16:57 59.46468 17.89214 3442 ft 194 kts
2026-05-05 16:57 59.47747 17.89718 3188 ft 177 kts
2026-05-05 16:57 59.48893 17.90129 2970 ft 160 kts
2026-05-05 16:57 59.49978 17.90498 2730 ft 161 kts
2026-05-05 16:58 59.51083 17.90878 2512 ft 162 kts
2026-05-05 16:58 59.52162 17.91303 2303 ft 151 kts
2026-05-05 16:58 59.53154 17.91676 2115 ft 138 kts
2026-05-05 16:58 59.54066 17.91978 1918 ft 128 kts
2026-05-05 16:59 59.54925 17.92276 1756 ft 125 kts
2026-05-05 16:59 59.55811 17.92596 1578 ft 134 kts
2026-05-05 16:59 59.56739 17.92931 1374 ft 136 kts
2026-05-05 16:59 59.57667 17.93284 1190 ft 137 kts
2026-05-05 17:00 59.58561 17.93618 1004 ft 126 kts
2026-05-05 17:00 59.59415 17.93914 887 ft 123 kts
2026-05-05 17:00 59.60263 17.94213 702 ft 121 kts
2026-05-05 17:00 59.61086 17.94523 506 ft 121 kts
2026-05-05 17:01 59.61893 17.94824 334 ft 115 kts
2026-05-05 17:01 59.62668 17.95094 203 ft 111 kts
2026-05-05 17:01 59.63404 17.95354 144 ft 102 kts
2026-05-05 17:01 59.64024 17.95578 140 ft 75 kts 12°
2026-05-05 17:02 59.64400 17.95712 141 ft 51 kts 11°
2026-05-05 17:02 59.64729 17.95838 140 ft 33 kts 11°
2026-05-05 17:02 59.64845 17.95752 137 ft 17 kts 314°
2026-05-05 17:02 59.64856 17.95644 135 ft 8 kts 271°
2026-05-05 17:03 59.64861 17.95534 135 ft 8 kts 276°
2026-05-05 17:03 59.64841 17.95473 135 ft 6 kts 202°
2026-05-05 17:03 59.64736 17.95436 135 ft 15 kts 201°
2026-05-05 17:03 59.64633 17.95381 135 ft 15 kts 207°
2026-05-05 17:04 59.64558 17.95250 134 ft 14 kts 233°
2026-05-05 17:04 59.64508 17.95092 134 ft 16 kts 240°
2026-05-05 17:04 59.64453 17.94927 134 ft 13 kts 237°
2026-05-05 17:04 59.64395 17.94747 134 ft 18 kts 237°
2026-05-05 17:05 59.64321 17.94513 134 ft 22 kts 239°
2026-05-05 17:05 59.64233 17.94241 134 ft 25 kts 238°
2026-05-05 17:05 59.64140 17.93943 134 ft 26 kts 241°
2026-05-05 17:05 59.64038 17.93631 134 ft 28 kts 240°
2026-05-05 17:06 59.64006 17.93273 134 ft 27 kts 283°
2026-05-05 17:06 59.64084 17.92937 134 ft 27 kts 297°
2026-05-05 17:06 59.64166 17.92604 134 ft 27 kts 298°
2026-05-05 17:06 59.64221 17.92388 134 ft 17 kts 295°
2026-05-05 17:07 59.64295 17.92222 134 ft 17 kts 10°
2026-05-05 17:07 59.64406 17.92364 134 ft 20 kts 34°
2026-05-05 17:07 59.64465 17.92416 134 ft 5 kts
2026-05-05 17:07 59.64512 17.92411 134 ft 1 kts 356°
2026-05-05 17:08 59.64513 17.92411 134 ft 0 kts 356°